Hourly Data Report for November 27, 2021

WINDSOR A
ONTARIO
Current Station Operator: NAVCAN

42°16'34.000" N
82°57'19.000" W
189.60 m
6139530
71538
YQG

Download Data

Hourly Data (November 2021)
Hourly Data Report for November 27, 2021
TIME
LST
Temp Definition
°C
Dew Point Definition
°C
Rel Hum Definition
%
Precip. Amount Definition
mm

Wind Dir Definition
10's deg

Wind Spd Definition
km/h
Visibility Definition
km
Stn Press Definition
kPa
Hmdx Definition


Wind Chill Definition


Weather Definition


00:00 -1.9 -8.5 61 0.0 32 15 16.1 99.55   -7 LegendNANA
01:00 -1.9 -8.5 61 0.0 31 17 16.1 99.55   -7 LegendNANA
02:00 -2.8 -8.3 66 0.0 30 9 16.1 99.56   -6 LegendNANA
03:00 -4.2 -7.0 81 0.0 24 4 16.1 99.55   -6 LegendNANA
04:00 -4.5 -7.1 82 0.0 23 9 16.1 99.52   -8 LegendNANA
05:00 -3.5 -6.2 82 0.0 22 8 16.1 99.51   -7 LegendNANA
06:00 -3.2 -6.0 81 0.0 22 5 16.1 99.52   -5 LegendNANA
07:00 -3.0 -5.3 85 0.0 15 4 16.1 99.50   -5 LegendNANA
08:00 -3.3 -5.0 88 0.0 14 5 16.1 99.49   -5 LegendNANA
09:00 -2.4 -5.2 81 0.0 15 8 16.1 99.48   -6 LegendNANA
10:00 -1.3 -5.5 73 0.0 15 5 16.1 99.46   -3 LegendNANA
11:00 -0.3 -4.4 74 0.0 18 11 16.1 99.41   -4 LegendNANA
12:00 0.2 -3.9 74 0.0 19 13 16.1 99.30     LegendNANA
13:00 -1.3 -2.7 90 0.0 20 17 2.0 99.23   -6 Snow
14:00 -1.9 -3.9 86 0.2 19 11 2.4 99.13   -6 Snow
15:00 -1.9 -3.0 92 0.2 13 9 2.4 99.05   -5 Snow
16:00 -1.8 -2.6 94 0.2 11 11 4.8 98.99   -6 Snow
17:00 -1.6 -2.2 96 0.5 12 11 2.4 98.92   -5 Snow
18:00 -1.4 -1.8 97 0.5 12 8 2.4 98.89   -4 Snow
19:00 -1.1 -1.4 98 0.5 14 9 3.2 98.82   -4 Snow
20:00 -0.7 -1.1 97 0.5 16 9 2.0 98.78   -4 Snow
21:00 -0.5 -0.8 98 0.8 16 8 1.2 98.75   -3 Snow
22:00 -0.3 -0.4 99 1.0 14 5 1.2 98.69   -2 Snow
23:00 -0.4 -0.5 99 0.5 6 5 1.6 98.62   -2 Snow

Notes on Data Quality.

Legend

  • E = Estimated
  • M = Missing
  • NA = Not Available*
  • [empty] = Indicates an unobserved value
Date modified: